Waarnemingen

Advertentie
Mijn weer
Auch, Frankrijk (7622): temperatuur & dauwpunt: 23.03.2017 01:00:00 - 29.03.2017 01:00:00 (CEST)Auch, Frankrijk (7622): temperatuur 5cm: 23.03.2017 01:00:00 - 29.03.2017 01:00:00 (CEST)Auch, Frankrijk (7622): temperatuur -20cm & temperatuur -100cm: 23.03.2017 01:00:00 - 29.03.2017 01:00:00 (CEST)Auch, Frankrijk (7622): windsnelheid & windstoten: 23.03.2017 01:00:00 - 29.03.2017 01:00:00 (CEST)Auch, Frankrijk (7622): windrichting: 23.03.2017 01:00:00 - 29.03.2017 01:00:00 (CEST)Auch, Frankrijk (7622): luchtdruk: 23.03.2017 01:00:00 - 29.03.2017 01:00:00 (CEST)Auch, Frankrijk (7622): zicht: 23.03.2017 01:00:00 - 29.03.2017 01:00:00 (CEST)Auch, Frankrijk (7622): Zonneschijnduur: 23.03.2017 01:00:00 - 29.03.2017 01:00:00 (CEST)Auch, Frankrijk (7622): neerslag: 23.03.2017 01:00:00 - 29.03.2017 01:00:00 (CEST)
Datum & Tijd tt [°C] td [°C] tt 5cm [°C] tt -20cm [°C] tt -100cm [°C] ff [km/u] ff [kn] fx [km/u] fx [kn] dd ppp [hPa] vv [km] sd [min] rr [mm]
29.03.2017 01:00:00 6,4 5,0 2,9 12,6 11,4 0 0 4 2 N 1028,5 20 0 0,0
29.03.2017 00:00:00 7,2 5,7 3,6 12,7 11,5 0 0 2 1 N 1028,3 20 0 0,0
28.03.2017 23:00:00 8,1 6,1 4,2 12,7 11,5 0 0 3 2 N 1027,9 20 0 0,0
28.03.2017 22:00:00 9,1 6,5 4,9 12,7 11,5 0 0 3 1 N 1027,6 20 0 0,0
28.03.2017 21:00:00 12,1 7,8 6,8 12,6 11,4 0 0 3 2 N 1026,6 20 0 0,0
28.03.2017 20:00:00 17,7 7,7 15,4 12,4 11,5 4 2 14 8 NNW 1025,8 20 58 0,0
28.03.2017 19:00:00 19,6 7,0 22,6 12,2 11,4 8 5 14 8 NNW 1025,3 20 60 0,0
28.03.2017 18:00:00 20,6 5,8 19,1 12,0 11,4 4 2 21 11 W 1025,0 20 45 0,0
28.03.2017 17:00:00 19,7 4,6 19,4 11,7 11,4 6 4 18 10 WNW 1025,1 20 28 0,0
28.03.2017 16:00:00 18,8 6,3 19,5 11,6 11,4 4 2 12 6 NNW 1025,4 20 8 0,0
28.03.2017 15:00:00 19,5 7,2 19,2 11,3 11,4 7 4 14 7 NO 1025,8 20 32 0,0
28.03.2017 14:00:00 18,5 7,9 18,7 11,2 11,4 3 2 11 6 NO 1026,3 19 16 0,0
28.03.2017 13:00:00 17,7 9,1 21,3 11,1 11,4 8 4 14 8 N 1026,6 20 53 0,0
28.03.2017 12:00:00 15,8 9,7 20,1 11,1 11,4 5 3 10 5 NNW 1026,8 20 60 0,0
28.03.2017 11:00:00 12,9 7,1 12,2 11,1 11,4 2 1 8 5 OZO 1026,6 20 7 0,0
28.03.2017 10:00:00 10,3 5,7 7,9 11,3 11,4 5 3 10 5 ZZO 1026,0 20 35 0,0
28.03.2017 09:00:00 7,0 6,7 0,9 11,4 11,4 7 4 10 5 Z 1025,6 19 53 0,0
28.03.2017 08:00:00 3,7 3,3 0,3 11,5 11,4 0 0 6 3 N 1025,1 13 0 0,0
28.03.2017 07:00:00 4,4 4,0 0,9 11,6 11,4 2 1 5 3 ZZW 1024,5 13 0 0,0
28.03.2017 06:00:00 4,4 4,0 0,9 11,8 11,4 4 2 6 3 ZW 1024,2 12 0 0,0
28.03.2017 05:00:00 5,1 4,5 1,1 11,9 11,4 2 1 4 2 Z 1023,8 5 0 0,0
28.03.2017 04:00:00 5,7 5,3 1,9 11,9 11,4 3 1 5 3 Z 1023,7 11 0 0,0
28.03.2017 03:00:00 5,9 5,0 2,5 12,0 11,4 3 1 6 4 ZW 1023,5 18 0 0,0
28.03.2017 02:00:00 7,0 6,3 3,2 12,1 11,4 3 1 4 2 Z 1023,3 20 0 0,0
28.03.2017 01:00:00 8,7 7,1 5,4 12,1 11,4 0 0 3 2 N 1022,5 20 0 0,0
28.03.2017 00:00:00 10,9 8,1 6,6 12,1 11,4 0 0 10 6 N 1022,0 20 0 0,0
27.03.2017 23:00:00 12,7 8,8 11,1 12,1 11,4 2 1 16 8 ZZO 1021,5 20 0 0,0
27.03.2017 22:00:00 13,2 8,7 11,5 12,1 11,5 4 2 18 10 ZZO 1021,0 20 0 0,0
27.03.2017 21:00:00 14,0 8,4 13,2 12,0 11,4 7 4 18 10 OZO 1019,8 20 0 0,0
27.03.2017 20:00:00 14,8 8,5 14,2 11,9 11,4 6 4 16 9 O 1019,2 20 9 0,0
27.03.2017 19:00:00 16,2 9,1 16,6 11,8 11,4 4 2 12 6 OZO 1018,8 20 0 0,0
27.03.2017 18:00:00 16,2 9,1 17,0 11,7 11,4 9 5 16 9 O 1018,5 20 0 0,0
27.03.2017 17:00:00 16,2 9,4 16,7 11,5 11,4 9 5 21 11 ZO 1018,2 20 0 0,0
27.03.2017 16:00:00 16,7 9,6 16,8 11,4 11,4 8 4 14 8 NO 1017,8 20 0 0,0
27.03.2017 15:00:00 16,4 9,6 16,9 11,3 11,4 8 4 19 10 ZO 1018,0 20 0 0,0
27.03.2017 14:00:00 17,1 9,3 17,8 11,1 11,4 9 5 16 9 ZO 1017,5 20 3 0,0
27.03.2017 13:00:00 17,1 9,5 18,2 11,0 11,4 11 6 16 9 OZO 1017,4 20 19 0,0
27.03.2017 12:00:00 15,9 9,3 17,6 11,0 11,4 9 5 27 14 ZZO 1017,0 20 44 0,0
27.03.2017 11:00:00 14,5 9,5 13,5 11,0 11,4 15 8 29 16 ZZO 1016,6 20 35 0,0
27.03.2017 10:00:00 12,4 8,9 10,6 11,1 11,4 11 6 19 10 ZZO 1016,0 20 29 0,0
27.03.2017 09:00:00 10,5 8,3 9,1 11,1 11,4 5 3 12 7 Z 1015,7 20 0 0,0
27.03.2017 08:00:00 10,0 8,1 8,5 11,2 11,4 4 2 11 6 OZO 1015,3 20 0 0,0
27.03.2017 07:00:00 10,1 8,0 9,0 11,3 11,4 5 3 16 9 O 1014,9 20 0 0,0
27.03.2017 06:00:00 9,9 7,8 8,6 11,4 11,5 8 4 15 8 ONO 1014,6 20 0 0,0
27.03.2017 05:00:00 9,7 7,8 7,3 11,5 11,4 5 3 18 10 ZO 1014,7 20 0 0,0
27.03.2017 04:00:00 8,8 7,1 5,6 11,6 11,5 5 3 8 4 O 1015,2 20 0 0,0
27.03.2017 03:00:00 8,6 6,7 4,8 11,7 11,4 4 2 11 6 W 1016,2 20 0 0,0
27.03.2017 02:00:00 8,8 5,5 4,3 11,8 11,5 4 2 13 7 NW 1016,7 20 0 0,0
27.03.2017 01:00:00 10,7 4,8 7,6 11,8 11,5 3 2 17 9 O 1016,9 20 0 0,0
27.03.2017 00:00:00 10,4 5,4 7,2 11,8 11,4 2 1 11 6 NNO 1016,8 20 0 0,0
26.03.2017 23:00:00 12,1 5,0 9,4 11,9 11,5 5 3 18 10 Z 1016,5 20 0 0,0
26.03.2017 22:00:00 12,3 6,3 8,2 11,8 11,5 3 2 11 6 O 1016,4 20 0 0,0
26.03.2017 21:00:00 13,5 6,6 8,2 11,7 11,5 0 0 11 6 N 1015,7 20 0 0,0
26.03.2017 20:00:00 17,0 5,3 15,7 11,5 11,5 5 3 18 10 OZO 1015,2 20 56 0,0
26.03.2017 19:00:00 19,1 3,7 20,4 11,3 11,4 14 7 27 15 O 1014,9 20 60 0,0
26.03.2017 18:00:00 19,6 6,0 22,7 11,0 11,5 13 7 29 16 O 1014,9 20 60 0,0
26.03.2017 17:00:00 19,7 4,2 23,2 10,7 11,5 14 8 29 16 O 1015,2 20 60 0,0
26.03.2017 16:00:00 19,1 5,5 23,2 10,4 11,5 14 8 26 14 O 1015,8 20 60 0,0
26.03.2017 15:00:00 18,3 7,4 22,1 10,1 11,4 11 6 23 12 O 1016,5 20 60 0,0
26.03.2017 14:00:00 17,7 6,2 19,2 10,0 11,5 11 6 26 14 OZO 1017,0 20 49 0,0
26.03.2017 13:00:00 16,2 7,4 18,8 9,9 11,5 11 6 24 13 OZO 1017,4 20 57 0,0
26.03.2017 12:00:00 14,7 7,3 13,9 9,9 11,5 10 5 19 11 OZO 1017,4 20 34 0,0
26.03.2017 11:00:00 11,4 6,1 12,5 10,0 11,5 11 6 17 9 O 1017,7 20 41 0,0
26.03.2017 10:00:00 7,4 7,3 1,6 10,1 11,5 3 1 8 4 NNO 1017,5 20 37 0,0
26.03.2017 09:00:00 1,2 0,9 -2,4 10,2 11,5 0 0 4 2 N 1017,2 20 31 0,0
26.03.2017 08:00:00 0,3 0,0 -2,9 10,4 11,5 0 0 5 3 N 1016,8 13 0 0,0
26.03.2017 07:00:00 0,6 0,3 -3,1 10,5 11,5 0 0 5 3 N 1016,4 20 0 0,0
26.03.2017 06:00:00 0,7 0,3 -2,3 10,7 11,5 0 0 6 3 N 1016,2 11 0 0,0
26.03.2017 05:00:00 0,9 0,5 -1,6 10,8 11,5 0 0 9 5 N 1016,2 12 0 0,0
26.03.2017 04:00:00 1,3 1,0 -1,8 10,9 11,5 0 0 5 3 N 1016,0 3,2 0 0,0
26.03.2017 03:00:00 1,6 1,2 -1,6 11,0 11,5 0 0 4 2 N 1016,5 3,5 0 0,0
26.03.2017 02:00:00 2,0 1,6 -1,1 11,2 11,5 2 1 4 2 ZW 1016,5 4,9 0 0,0
26.03.2017 01:00:00 3,0 2,6 -0,9 11,3 11,5 0 0 4 2 N 1016,2 13 0 0,0
26.03.2017 00:00:00 3,9 3,3 0,8 11,3 11,5 2 1 6 3 Z 1015,8 19 0 0,0
25.03.2017 23:00:00 5,0 4,4 1,4 11,4 11,5 0 0 7 4 N 1015,5 20 0 0,0
25.03.2017 22:00:00 6,0 5,0 2,7 11,4 11,5 3 2 4 2 Z 1014,6 20 0 0,0
25.03.2017 21:00:00 7,7 5,7 3,6 11,3 11,5 2 1 13 7 NNO 1013,2 20 0 0,0
25.03.2017 20:00:00 10,1 6,8 6,2 11,2 11,5 3 2 8 4 N 1012,0 19 15 0,0
25.03.2017 19:00:00 13,2 5,6 13,9 11,1 11,5 4 2 11 6 NNW 1011,0 20 58 0,0
25.03.2017 18:00:00 12,5 6,1 13,2 11,0 11,5 5 3 21 11 ZW 1011,1 20 6 0,0
25.03.2017 17:00:00 12,1 6,6 13,2 10,9 11,5 15 8 29 16 ZZO 1011,2 20 22 0,0
25.03.2017 16:00:00 11,1 7,4 10,5 10,8 11,5 13 7 25 13 ZZO 1010,8 20 23 0,0
25.03.2017 15:00:00 9,5 7,9 8,4 10,7 11,5 18 10 32 18 Z 1010,1 20 0 0,0
25.03.2017 14:00:00 9,9 8,7 10,7 10,7 11,5 7 4 13 7 Z 1009,4 20 0 0,2
25.03.2017 13:00:00 8,8 8,0 8,3 10,7 11,5 4 2 18 10 ZW 1009,2 16 0 0,8
25.03.2017 12:00:00 7,8 6,7 7,8 10,7 11,5 5 3 13 7 WZW 1009,7 10 0 0,4
25.03.2017 11:00:00 7,5 6,6 7,2 10,8 11,5 3 2 8 4 W 1009,9 20 0 0,0
25.03.2017 10:00:00 6,7 5,8 6,4 10,8 11,5 6 3 9 5 ZW 1010,8 20 0 0,6
25.03.2017 09:00:00 6,3 5,7 6,0 10,8 11,5 5 3 11 6 ZZW 1010,7 20 0 0,0
25.03.2017 08:00:00 6,1 5,7 6,0 10,9 11,5 11 6 16 8 Z 1011,5 6 0 0,8
25.03.2017 07:00:00 6,0 5,4 5,7 11,0 11,5 6 3 10 5 NW 1011,2 14 0 0,2
25.03.2017 06:00:00 5,8 5,2 5,8 11,0 11,5 4 2 10 6 WZW 1012,3 4,5 0 0,4
25.03.2017 05:00:00 6,0 5,3 5,8 11,1 11,5 3 1 7 4 WZW 1013,3 6 0 0,2
25.03.2017 04:00:00 6,1 5,1 6,0 11,1 11,5 4 2 6 4 NNW 1014,7 3,9 0 0,8
25.03.2017 03:00:00 6,4 5,5 6,1 11,2 11,5 2 1 9 5 Z 1015,7 12 0 0,2
25.03.2017 02:00:00 6,5 5,8 6,1 11,2 11,5 5 3 13 7 Z 1016,3 19 0 0,2
25.03.2017 01:00:00 6,6 5,5 6,1 11,3 11,5 10 5 18 10 Z 1017,2 18 0 0,2
25.03.2017 00:00:00 7,0 6,3 6,7 11,3 11,5 9 5 13 7 Z 1017,4 15 0 0,4
24.03.2017 23:00:00 7,1 6,4 6,7 11,3 11,5 8 4 11 6 Z 1017,7 6 0 1,6
24.03.2017 22:00:00 7,4 6,3 6,9 11,3 11,5 2 1 14 8 Z 1018,6 7 0 1,2
24.03.2017 21:00:00 7,9 6,4 7,2 11,3 11,5 8 4 17 9 ZO 1018,7 16 0 0,4
24.03.2017 20:00:00 8,3 5,9 7,4 11,2 11,5 8 4 29 15 ONO 1017,9 20 0 0,2
24.03.2017 19:00:00 11,3 6,2 11,1 11,1 11,5 4 2 14 7 O 1016,9 20 0 0,0
24.03.2017 18:00:00 11,6 6,9 11,9 11,0 11,5 7 4 14 7 ONO 1016,6 20 0 0,0
24.03.2017 17:00:00 11,7 6,4 12,6 10,9 11,5 6 4 16 9 OZO 1017,0 20 0 0,0
24.03.2017 16:00:00 11,8 6,1 13,2 10,7 11,5 8 4 16 9 ONO 1017,0 20 0 0,0
24.03.2017 15:00:00 11,5 5,8 14,1 10,6 11,5 4 2 13 7 N 1016,7 20 0 0,0
24.03.2017 14:00:00 10,9 5,6 12,7 10,6 11,5 3 2 8 4 W 1016,6 19 0 0,0
24.03.2017 13:00:00 10,4 5,8 13,1 10,6 11,5 4 2 11 6 ZO 1017,0 20 3 0,0
24.03.2017 12:00:00 9,0 5,9 10,2 10,6 11,5 2 1 6 3 N 1017,1 20 0 0,0
24.03.2017 11:00:00 7,3 4,6 7,8 10,7 11,5 0 0 7 4 N 1016,8 20 34 0,0
24.03.2017 10:00:00 5,1 4,2 3,5 10,8 11,5 0 0 5 3 N 1016,5 19 60 0,0
24.03.2017 09:00:00 2,0 1,9 -0,9 11,0 11,5 0 0 5 3 N 1016,2 19 15 0,0
24.03.2017 08:00:00 0,8 0,4 -1,2 11,1 11,5 0 0 3 2 N 1015,6 13 0 0,0
24.03.2017 07:00:00 0,4 0,0 -2,0 11,3 11,5 0 0 3 1 N 1015,2 14 0 0,0
24.03.2017 06:00:00 0,7 0,1 -2,6 11,4 11,5 0 0 4 2 N 1015,3 19 0 0,0
24.03.2017 05:00:00 1,4 0,8 -2,3 11,5 11,5 0 0 0 0 N 1014,7 20 0 0,0
24.03.2017 04:00:00 2,3 1,6 -0,9 11,7 11,5 0 0 2 1 N 1015,1 20 0 0,0
24.03.2017 03:00:00 3,6 2,6 0,2 11,8 11,5 0 0 4 2 N 1015,0 20 0 0,0
24.03.2017 02:00:00 4,5 3,3 2,1 11,9 11,5 0 0 5 3 N 1014,7 20 0 0,0
24.03.2017 01:00:00 5,0 3,2 1,9 12,0 11,5 0 0 9 5 N 1014,4 20 0 0,0
24.03.2017 00:00:00 5,9 3,6 3,1 12,1 11,5 6 3 16 8 N 1014,2 20 0 0,0
23.03.2017 23:00:00 7,1 3,7 6,1 12,2 11,5 6 3 18 10 ONO 1013,6 20 0 0,0
23.03.2017 22:00:00 7,7 4,3 3,3 12,2 11,5 5 3 16 9 O 1013,3 20 0 0,0
23.03.2017 21:00:00 7,9 3,0 3,0 12,1 11,5 2 1 11 6 ONO 1012,3 20 0 0,0
23.03.2017 20:00:00 10,8 2,9 10,3 12,0 11,5 7 4 16 9 O 1011,1 20 37 0,0
23.03.2017 19:00:00 11,9 2,6 12,2 11,9 11,5 11 6 17 9 NO 1010,4 20 52 0,0
23.03.2017 18:00:00 11,9 1,2 13,0 11,7 11,5 6 3 16 9 ONO 1009,9 20 46 0,0
23.03.2017 17:00:00 12,8 2,6 12,6 11,5 11,5 4 2 16 9 ONO 1009,9 20 38 0,0
23.03.2017 16:00:00 11,1 1,9 13,5 11,3 11,5 9 5 15 8 N 1009,9 20 20 0,0
23.03.2017 15:00:00 11,3 1,5 12,8 11,1 11,5 4 2 12 6 N 1010,1 16 30 0,2
23.03.2017 14:00:00 10,4 3,2 13,2 11,0 11,5 6 3 13 7 NNW 1010,5 20 48 0,0
23.03.2017 13:00:00 9,1 3,7 11,0 11,0 11,5 5 3 13 7 Z 1010,9 20 19 0,0
23.03.2017 12:00:00 8,0 4,6 9,4 11,0 11,5 4 2 15 8 ZZW 1010,8 20 7 0,0
23.03.2017 11:00:00 6,8 4,3 6,9 11,1 11,5 3 2 10 6 ZW 1010,8 20 0 0,0
23.03.2017 10:00:00 6,0 4,5 5,4 11,2 11,5 4 2 11 6 ZW 1010,4 20 0 0,0
23.03.2017 09:00:00 5,6 4,6 5,2 11,3 11,5 6 3 15 8 ZW 1009,8 14 0 0,8
23.03.2017 08:00:00 5,6 4,7 5,1 11,3 11,5 2 1 8 5 Z 1009,1 15 0 1,0
23.03.2017 07:00:00 5,6 4,4 5,2 11,4 11,5 8 4 12 6 ZZO 1009,0 20 0 0,4
23.03.2017 06:00:00 5,5 4,8 5,2 11,5 11,5 6 3 9 5 Z 1008,8 20 0 1,4
23.03.2017 05:00:00 5,7 5,0 5,3 11,6 11,5 4 2 9 5 ZZW 1008,8 16 0 1,0
23.03.2017 04:00:00 5,7 4,8 5,3 11,7 11,5 3 2 5 3 ZO 1009,0 14 0 0,2
23.03.2017 03:00:00 5,6 4,7 5,3 11,8 11,5 4 2 6 4 Z 1009,7 20 0 0,2
23.03.2017 02:00:00 5,7 4,8 5,2 11,9 11,5 2 1 5 3 NO 1009,6 20 0 0,0
23.03.2017 01:00:00 - - - - - - - - - - - - - -

tt = temperatuur
td = dauwpunt
tt 5cm = temperatuur 5cm
tt -20cm = temperatuur -20cm
tt -100cm = temperatuur -100cm
ff = windsnelheid
fx = windstoten
dd = windrichting
ppp = luchtdruk
vv = zicht
sd = Zonneschijnduur
rr = neerslag

Weerstations in de omgeving